| time (UTC) | temp F | wind direction | speed MPH | gust MPH | rain 1hr in | rain 24hr in | rain mn in | humidity % | barometer mb |
| 20260507061503 | 44 | 164 | 0.0 | 0.0 | 0.00 | 0.00 | 0.00 | 69 | 1012.8 |
| 20260507060059 | 45 | 164 | 0.0 | 0.0 | 0.00 | 0.00 | 0.00 | 69 | 1012.8 |
| 20260507054556 | 45 | 164 | 0.0 | 0.0 | 0.00 | 0.00 | 0.00 | 69 | 1012.9 |
| 20260507053053 | 46 | 164 | 0.0 | 0.0 | 0.00 | 0.00 | 0.00 | 69 | 1013.0 |
| 20260507051549 | 46 | 163 | 0.0 | 0.0 | 0.00 | 0.00 | 0.00 | 69 | 1013.0 |
| 20260507050045 | 47 | 163 | 0.0 | 0.0 | 0.00 | 0.00 | 0.00 | 69 | 1013.1 |
| 20260507044543 | 47 | 164 | 0.0 | 0.0 | 0.00 | 0.00 | 0.00 | 69 | 1013.1 |
| 20260507043043 | 47 | 163 | 0.0 | 2.0 | 0.00 | 0.00 | 0.00 | 68 | 1013.1 |
| 20260507041543 | 47 | 192 | 1.0 | 2.0 | 0.00 | 0.00 | 0.00 | 68 | 1013.3 |
| 20260507040033 | 47 | 189 | 0.0 | 3.0 | 0.00 | 0.00 | 0.00 | 68 | 1013.2 |
| 20260507034541 | 47 | 179 | 0.0 | 2.0 | 0.00 | 0.00 | 0.00 | 68 | 1013.2 |
| 20260507033029 | 48 | 158 | 1.0 | 5.0 | 0.00 | 0.00 | 0.00 | 68 | 1013.4 |
| 20260507031526 | 48 | 159 | 1.0 | 4.0 | 0.00 | 0.00 | 0.00 | 68 | 1013.5 |
| 20260507030024 | 48 | 143 | 1.0 | 2.0 | 0.00 | 0.00 | 0.00 | 67 | 1013.5 |
| 20260507024525 | 49 | 109 | 0.0 | 5.0 | 0.00 | 0.00 | 0.00 | 67 | 1013.4 |
| 20260507023020 | 48 | 170 | 1.0 | 2.0 | 0.00 | 0.00 | 0.00 | 67 | 1013.5 |
| 20260507021520 | 48 | 157 | 0.0 | 1.0 | 0.00 | 0.00 | 0.00 | 67 | 1013.4 |
| 20260507020017 | 48 | 159 | 0.0 | 1.0 | 0.00 | 0.00 | 0.00 | 66 | 1013.3 |
| 20260507014515 | 48 | 158 | 0.0 | 0.0 | 0.00 | 0.00 | 0.00 | 66 | 1013.2 |
| 20260507013013 | 48 | 157 | 0.0 | 0.0 | 0.00 | 0.00 | 0.00 | 66 | 1013.2 |
| 20260507011510 | 48 | 157 | 0.0 | 0.0 | 0.00 | 0.00 | 0.00 | 66 | 1013.2 |
| 20260507010019 | 48 | 158 | 0.0 | 2.0 | 0.00 | 0.00 | 0.00 | 66 | 1013.1 |
| 20260507004505 | 49 | 100 | 0.0 | 1.0 | 0.00 | 0.00 | 0.00 | 65 | 1013.0 |
| 20260507003002 | 49 | 126 | 0.0 | 1.0 | 0.00 | 0.00 | 0.00 | 65 | 1013.1 |
| 20260507001613 | 50 | 142 | 0.0 | 2.0 | 0.00 | 0.00 | 0.00 | 65 | 1013.0 |
| 20260507000058 | 50 | 155 | 0.0 | 1.0 | 0.00 | 0.00 | 0.00 | 65 | 1013.1 |
| 20260506234602 | 51 | 110 | 0.0 | 1.0 | 0.00 | 0.00 | 0.00 | 65 | 1012.9 |
| 20260506233057 | 52 | 199 | 0.0 | 1.0 | 0.00 | 0.00 | 0.00 | 65 | 1012.9 |
| 20260506231554 | 53 | 20 | 0.0 | 4.0 | 0.00 | 0.00 | 0.00 | 66 | 1012.8 |
| 20260506230049 | 56 | 262 | 2.0 | 4.0 | 0.00 | 0.00 | 0.00 | 66 | 1012.8 |
| 20260506224600 | 55 | 343 | 1.0 | 4.0 | 0.00 | 0.00 | 0.00 | 66 | 1012.9 |
| 20260506223041 | 54 | 174 | 1.0 | 5.0 | 0.00 | 0.00 | 0.00 | 66 | 1012.8 |
| 20260506221539 | 54 | 180 | 1.0 | 4.0 | 0.00 | 0.00 | 0.00 | 66 | 1012.9 |
| 20260506220044 | 54 | 284 | 2.0 | 6.0 | 0.00 | 0.00 | 0.00 | 66 | 1012.9 |
| 20260506214536 | 53 | 233 | 0.0 | 5.0 | 0.00 | 0.00 | 0.00 | 66 | 1012.9 |
| 20260506213031 | 54 | 335 | 1.0 | 5.0 | 0.00 | 0.00 | 0.00 | 66 | 1012.8 |
| 20260506211528 | 54 | 277 | 2.0 | 6.0 | 0.00 | 0.00 | 0.00 | 66 | 1012.7 |
| 20260506210129 | 53 | 261 | 0.0 | 5.0 | 0.00 | 0.00 | 0.00 | 66 | 1012.7 |
| 20260506204524 | 53 | 333 | 1.0 | 4.0 | 0.00 | 0.00 | 0.00 | 67 | 1012.7 |
| 20260506203021 | 53 | 295 | 2.0 | 8.0 | 0.00 | 0.00 | 0.00 | 67 | 1012.7 |
| 20260506201522 | 54 | 13 | 3.0 | 7.0 | 0.00 | 0.00 | 0.00 | 67 | 1012.8 |
| 20260506200016 | 55 | 326 | 2.0 | 6.0 | 0.00 | 0.00 | 0.00 | 67 | 1012.7 |
| 20260506194514 | 54 | 32 | 2.0 | 5.0 | 0.00 | 0.00 | 0.00 | 67 | 1012.9 |
| 20260506193011 | 54 | 274 | 2.0 | 7.0 | 0.00 | 0.00 | 0.00 | 68 | 1012.8 |
| 20260506191510 | 55 | 342 | 2.0 | 6.0 | 0.00 | 0.00 | 0.00 | 68 | 1012.7 |
| 20260506190004 | 54 | 336 | 2.0 | 9.0 | 0.00 | 0.00 | 0.00 | 68 | 1012.7 |
| 20260506184501 | 54 | 264 | 2.0 | 4.0 | 0.00 | 0.00 | 0.00 | 68 | 1012.6 |
| 20260506183103 | 54 | 326 | 2.0 | 7.0 | 0.00 | 0.00 | 0.00 | 68 | 1012.7 |
| 20260506181604 | 53 | 326 | 1.0 | 6.0 | 0.00 | 0.00 | 0.00 | 68 | 1012.7 |
| 20260506180049 | 52 | 285 | 1.0 | 6.0 | 0.00 | 0.00 | 0.00 | 68 | 1012.8 |
| 20260506174545 | 52 | 340 | 2.0 | 6.0 | 0.00 | 0.03 | 0.00 | 68 | 1013.0 |
| 20260506173059 | 52 | 122 | 1.0 | 7.0 | 0.00 | 0.03 | 0.00 | 68 | 1012.7 |
| 20260506171546 | 52 | 275 | 2.0 | 8.0 | 0.00 | 0.03 | 0.00 | 68 | 1012.7 |
| 20260506170038 | 52 | 330 | 2.0 | 8.0 | 0.00 | 0.03 | 0.00 | 69 | 1012.6 |
| 20260506164536 | 52 | 333 | 2.0 | 10.0 | 0.00 | 0.05 | 0.00 | 69 | 1012.7 |
| 20260506163035 | 51 | 39 | 1.0 | 5.0 | 0.00 | 0.05 | 0.00 | 69 | 1012.9 |
| 20260506161532 | 52 | 8 | 3.0 | 9.0 | 0.00 | 0.05 | 0.00 | 69 | 1012.6 |
| 20260506160037 | 51 | 328 | 1.0 | 9.0 | 0.00 | 0.05 | 0.00 | 69 | 1012.7 |
| 20260506154525 | 51 | 338 | 3.0 | 9.0 | 0.00 | 0.05 | 0.00 | 69 | 1012.8 |
| 20260506153022 | 51 | 342 | 2.0 | 8.0 | 0.00 | 0.05 | 0.00 | 69 | 1012.8 |
| 20260506151521 | 50 | 339 | 3.0 | 8.0 | 0.00 | 0.05 | 0.00 | 69 | 1012.6 |
| 20260506150018 | 50 | 321 | 1.0 | 9.0 | 0.00 | 0.05 | 0.00 | 69 | 1012.6 |
| 20260506144514 | 48 | 27 | 3.0 | 7.0 | 0.00 | 0.05 | 0.00 | 69 | 1012.6 |
| 20260506143013 | 47 | 32 | 3.0 | 6.0 | 0.00 | 0.05 | 0.00 | 69 | 1012.6 |
| 20260506141510 | 47 | 58 | 2.0 | 7.0 | 0.00 | 0.05 | 0.00 | 69 | 1012.3 |
| 20260506140007 | 46 | 38 | 2.0 | 7.0 | 0.00 | 0.05 | 0.00 | 69 | 1012.3 |
| 20260506134505 | 45 | 356 | 4.0 | 6.0 | 0.00 | 0.05 | 0.00 | 69 | 1012.2 |
| 20260506133001 | 45 | 354 | 3.0 | 10.0 | 0.00 | 0.05 | 0.00 | 68 | 1012.0 |
| 20260506131604 | 44 | 59 | 3.0 | 10.0 | 0.00 | 0.05 | 0.00 | 68 | 1011.9 |
| 20260506130055 | 45 | 343 | 3.0 | 8.0 | 0.00 | 0.05 | 0.00 | 68 | 1011.5 |
| 20260506124549 | 44 | 343 | 3.0 | 8.0 | 0.00 | 0.05 | 0.00 | 68 | 1011.2 |
| 20260506123047 | 44 | 355 | 2.0 | 6.0 | 0.00 | 0.05 | 0.00 | 68 | 1011.0 |
| 20260506121542 | 44 | 317 | 4.0 | 7.0 | 0.00 | 0.05 | 0.00 | 68 | 1011.1 |
| 20260506120038 | 44 | 327 | 2.0 | 6.0 | 0.00 | 0.05 | 0.00 | 68 | 1010.9 |
| 20260506114535 | 44 | 316 | 2.0 | 6.0 | 0.00 | 0.05 | 0.00 | 68 | 1010.6 |
| 20260506113030 | 44 | 32 | 2.0 | 5.0 | 0.00 | 0.05 | 0.00 | 68 | 1010.2 |
| 20260506111525 | 44 | 323 | 1.0 | 4.0 | 0.00 | 0.05 | 0.00 | 68 | 1010.1 |
| 20260506110021 | 45 | 27 | 1.0 | 6.0 | 0.00 | 0.05 | 0.00 | 68 | 1009.8 |
| 20260506104516 | 45 | 16 | 2.0 | 5.0 | 0.00 | 0.05 | 0.00 | 68 | 1009.4 |
| 20260506103018 | 45 | 19 | 2.0 | 5.0 | 0.00 | 0.05 | 0.00 | 68 | 1009.3 |
| 20260506101510 | 45 | 342 | 2.0 | 4.0 | 0.00 | 0.05 | 0.00 | 68 | 1009.1 |
| 20260506100006 | 45 | 32 | 2.0 | 4.0 | 0.00 | 0.05 | 0.00 | 67 | 1009.0 |
| 20260506094503 | 46 | 17 | 1.0 | 5.0 | 0.00 | 0.05 | 0.00 | 67 | 1008.9 |
| 20260506093059 | 46 | 43 | 2.0 | 7.0 | 0.00 | 0.05 | 0.00 | 67 | 1009.0 |
| 20260506091557 | 47 | 353 | 2.0 | 6.0 | 0.00 | 0.05 | 0.00 | 67 | 1008.7 |
| 20260506090051 | 48 | 25 | 3.0 | 8.0 | 0.00 | 0.05 | 0.00 | 67 | 1008.5 |
| 20260506084547 | 49 | 12 | 2.0 | 7.0 | 0.00 | 0.05 | 0.00 | 67 | 1008.7 |
| 20260506083044 | 49 | 352 | 1.0 | 6.0 | 0.00 | 0.05 | 0.00 | 67 | 1008.5 |
| 20260506081539 | 49 | 321 | 0.0 | 3.0 | 0.00 | 0.05 | 0.00 | 68 | 1008.6 |
| 20260506073036 | 50 | 285 | 0.0 | 2.0 | 0.00 | 0.05 | 0.00 | 68 | 1008.3 |
| 20260506071534 | 49 | 265 | 1.0 | 3.0 | 0.00 | 0.05 | 0.00 | 68 | 1008.4 |